Location: Les Moreaux
(47.2278°N, 1.4966°E)
Time: 04:50:26
(UTC+00:00)

Cosmos 1076 Rocket - Pass Details

Date: 19 May 2025
Orbit: 583 x 603 km, 82.5° (Epoch: 13 June)

Event Time Altitude Azimuth Distance (km) Brightness Sun altitude
Rises 20:28:43 0° 349° (N) 2,867 7.9 -9.0°
Reaches altitude 10° 20:30:56 10° 349° (N) 1,961 7.0 -9.2°
Maximum altitude 20:35:17 83° 264° (W) 616 3.6 -9.8°
Drops below altitude 10° 20:39:36 10° 175° (S) 1,945 5.7 -10.3°
Enters shadow 20:40:10 - 175° (S) 2,178 5.9 -10.4°
